Time,TemperatureF,DewpointF,PressureIn,WindDirection,WindDirectionDegrees,WindSpeedMPH,WindSpeedGustMPH,Humidity,HourlyPrecipIn,Conditions,Clouds,dailyrainin,SoftwareType,DateUTC
2013-02-10 00:00:00,43.0,31.3,30.23,SW,215,0.0,0.0,63,0.00,,---,0.00,VWS V14.01,2013-02-10 05:00:00,
2013-02-10 00:05:00,42.8,32.6,30.23,SW,215,1.0,1.0,67,0.00,,---,0.00,VWS V14.01,2013-02-10 05:05:00,
2013-02-10 00:10:00,42.5,32.7,30.23,SW,215,0.0,0.0,68,0.00,,---,0.00,VWS V14.01,2013-02-10 05:10:00,
2013-02-10 00:15:00,42.3,31.0,30.23,SW,215,0.0,1.0,64,0.00,,---,0.00,VWS V14.01,2013-02-10 05:15:00,
2013-02-10 00:20:00,42.5,30.0,30.23,SW,215,0.0,1.0,61,0.00,,---,0.00,VWS V14.01,2013-02-10 05:20:00,
2013-02-10 00:25:00,42.7,31.0,30.23,SW,216,0.0,0.0,63,0.00,,---,0.00,VWS V14.01,2013-02-10 05:25:00,
2013-02-10 00:30:00,42.9,28.7,30.23,SW,215,0.0,1.0,57,0.00,,---,0.00,VWS V14.01,2013-02-10 05:30:00,
2013-02-10 00:35:00,42.9,31.2,30.23,SW,215,0.0,0.0,63,0.00,,---,0.00,VWS V14.01,2013-02-10 05:35:00,
2013-02-10 00:40:00,42.8,30.3,30.23,SW,216,0.0,0.0,61,0.00,,---,0.00,VWS V14.01,2013-02-10 05:40:00,
2013-02-10 00:45:00,42.6,31.3,30.23,SW,216,0.0,1.0,64,0.00,,---,0.00,VWS V14.01,2013-02-10 05:45:00,
2013-02-10 00:50:00,42.4,29.9,30.23,SW,215,0.0,0.0,61,0.00,,---,0.00,VWS V14.01,2013-02-10 05:50:00,
2013-02-10 00:55:00,42.4,31.1,30.23,SW,215,1.0,1.0,64,0.00,,---,0.00,VWS V14.01,2013-02-10 05:55:00,
2013-02-10 01:00:00,42.4,30.7,30.23,SW,215,0.0,1.0,63,0.00,,---,0.00,VWS V14.01,2013-02-10 06:00:00,
2013-02-10 01:05:00,42.2,30.9,30.23,SW,216,0.0,1.0,64,0.00,,---,0.00,VWS V14.01,2013-02-10 06:05:00,
2013-02-10 01:10:00,42.1,31.6,30.23,WNW,291,0.0,1.0,66,0.00,,---,0.00,VWS V14.01,2013-02-10 06:10:00,
2013-02-10 01:15:00,41.9,31.4,30.23,WNW,291,0.0,0.0,66,0.00,,---,0.00,VWS V14.01,2013-02-10 06:15:00,
2013-02-10 01:20:00,42.0,31.5,30.23,WNW,291,0.0,1.0,66,0.00,,---,0.00,VWS V14.01,2013-02-10 06:20:00,
2013-02-10 01:25:00,42.0,31.9,30.23,WNW,290,0.0,0.0,67,0.00,,---,0.00,VWS V14.01,2013-02-10 06:25:00,
2013-02-10 01:30:00,41.9,31.0,30.23,WNW,290,0.0,0.0,65,0.00,,---,0.00,VWS V14.01,2013-02-10 06:30:00,
2013-02-10 01:35:00,42.2,32.4,30.23,WNW,290,0.0,1.0,68,0.00,,---,0.00,VWS V14.01,2013-02-10 06:35:00,
2013-02-10 01:40:00,41.8,31.7,30.23,WNW,290,0.0,1.0,67,0.00,,---,0.00,VWS V14.01,2013-02-10 06:40:00,
2013-02-10 01:45:00,41.6,32.6,30.23,WNW,290,0.0,1.0,70,0.00,,---,0.00,VWS V14.01,2013-02-10 06:45:00,
2013-02-10 01:50:00,41.1,32.1,30.22,WNW,291,0.0,1.0,70,0.00,,---,0.00,VWS V14.01,2013-02-10 06:50:00,
2013-02-10 01:55:00,40.6,32.6,30.21,WNW,290,0.0,1.0,73,0.00,,---,0.00,VWS V14.01,2013-02-10 06:55:00,
2013-02-10 02:00:00,40.3,32.7,30.21,WNW,291,1.0,1.0,74,0.00,,---,0.00,VWS V14.01,2013-02-10 07:00:00,
2013-02-10 02:05:00,40.5,32.5,30.22,WNW,290,0.0,1.0,73,0.00,,---,0.00,VWS V14.01,2013-02-10 07:05:00,
2013-02-10 02:10:00,40.6,32.3,30.23,WNW,291,0.0,1.0,72,0.00,,---,0.00,VWS V14.01,2013-02-10 07:10:00,
2013-02-10 02:15:00,41.4,29.8,30.24,ESE,113,2.0,3.0,63,0.00,,---,0.00,VWS V14.01,2013-02-10 07:15:00,
2013-02-10 02:20:00,41.6,32.9,30.24,ENE,70,0.0,2.0,71,0.00,,---,0.00,VWS V14.01,2013-02-10 07:20:00,
2013-02-10 02:25:00,41.6,31.8,30.24,NNW,333,1.0,1.0,68,0.00,,---,0.00,VWS V14.01,2013-02-10 07:25:00,
2013-02-10 02:30:00,41.5,32.5,30.23,NNW,333,0.0,1.0,70,0.00,,---,0.00,VWS V14.01,2013-02-10 07:30:00,
2013-02-10 02:35:00,41.3,32.6,30.23,NNW,333,0.0,0.0,71,0.00,,---,0.00,VWS V14.01,2013-02-10 07:35:00,
2013-02-10 02:40:00,41.3,33.0,30.24,NNW,333,0.0,1.0,72,0.00,,---,0.00,VWS V14.01,2013-02-10 07:40:00,
2013-02-10 02:45:00,41.3,34.0,30.24,NNW,333,0.0,1.0,75,0.00,,---,0.00,VWS V14.01,2013-02-10 07:45:00,
2013-02-10 02:50:00,40.9,33.3,30.23,NNW,330,1.0,1.0,74,0.00,,---,0.00,VWS V14.01,2013-02-10 07:50:00,
2013-02-10 02:55:00,40.7,32.4,30.23,NNW,330,0.0,0.0,72,0.00,,---,0.00,VWS V14.01,2013-02-10 07:55:00,
2013-02-10 03:00:00,40.8,32.8,30.23,NNW,330,0.0,1.0,73,0.00,,---,0.00,VWS V14.01,2013-02-10 08:00:00,
2013-02-10 03:05:00,41.0,32.3,30.23,NNW,330,0.0,1.0,71,0.00,,---,0.00,VWS V14.01,2013-02-10 08:05:00,
2013-02-10 03:10:00,40.9,32.6,30.23,NNW,330,0.0,0.0,72,0.00,,---,0.00,VWS V14.01,2013-02-10 08:10:00,
2013-02-10 03:15:00,40.9,32.2,30.22,NNW,330,0.0,0.0,71,0.00,,---,0.00,VWS V14.01,2013-02-10 08:15:00,
2013-02-10 03:20:00,41.0,31.6,30.22,NNW,332,0.0,0.0,69,0.00,,---,0.00,VWS V14.01,2013-02-10 08:20:00,
2013-02-10 03:25:00,41.0,32.3,30.22,NNW,330,1.0,1.0,71,0.00,,---,0.00,VWS V14.01,2013-02-10 08:25:00,
2013-02-10 03:30:00,41.8,32.0,30.23,NNW,330,0.0,0.0,68,0.00,,---,0.00,VWS V14.01,2013-02-10 08:30:00,
2013-02-10 03:35:00,42.0,32.9,30.23,ESE,104,0.0,0.0,70,0.00,,---,0.00,VWS V14.01,2013-02-10 08:35:00,
2013-02-10 03:40:00,42.7,32.9,30.23,ENE,62,1.0,1.0,68,0.00,,---,0.00,VWS V14.01,2013-02-10 08:40:00,
2013-02-10 03:45:00,43.8,33.9,30.23,NW,314,0.0,2.0,68,0.00,,---,0.00,VWS V14.01,2013-02-10 08:45:00,
2013-02-10 03:50:00,43.7,32.3,30.22,NW,319,0.0,0.0,64,0.00,,---,0.00,VWS V14.01,2013-02-10 08:50:00,
2013-02-10 03:55:00,44.3,32.1,30.22,ENE,69,3.0,3.0,62,0.00,,---,0.00,VWS V14.01,2013-02-10 08:55:00,
2013-02-10 04:00:00,45.1,32.1,30.22,NE,43,1.0,1.0,60,0.00,,---,0.00,VWS V14.01,2013-02-10 09:00:00,
2013-02-10 04:05:00,46.2,32.7,30.22,NNE,27,1.0,2.0,59,0.00,,---,0.00,VWS V14.01,2013-02-10 09:05:00,
2013-02-10 04:10:00,46.3,32.8,30.22,NE,41,0.0,0.0,59,0.00,,---,0.00,VWS V14.01,2013-02-10 09:10:00,
2013-02-10 04:15:00,46.1,32.6,30.22,NE,40,0.0,0.0,59,0.00,,---,0.00,VWS V14.01,2013-02-10 09:15:00,
2013-02-10 04:20:00,41.0,31.6,30.22,NNW,330,0.0,0.0,69,0.00,,---,0.00,VWS V14.01,2013-02-10 09:20:00,
2013-02-10 04:21:00,46.4,32.0,30.22,NE,36,0.0,0.0,57,0.00,,---,0.00,VWS V14.01,2013-02-10 09:21:00,
2013-02-10 04:25:00,41.0,32.3,30.22,NNW,330,0.0,0.0,71,0.00,,---,0.00,VWS V14.01,2013-02-10 09:25:00,
2013-02-10 04:26:00,46.6,32.2,30.22,NE,48,1.0,2.0,57,0.00,,---,0.00,VWS V14.01,2013-02-10 09:26:00,
2013-02-10 04:30:00,41.7,31.9,30.22,NNW,330,0.0,1.0,68,0.00,,---,0.00,VWS V14.01,2013-02-10 09:30:00,
2013-02-10 04:31:00,46.8,33.2,30.21,NNW,333,0.0,0.0,59,0.00,,---,0.00,VWS V14.01,2013-02-10 09:31:00,
2013-02-10 04:35:00,42.0,32.9,30.23,ESE,104,0.0,2.0,70,0.00,,---,0.00,VWS V14.01,2013-02-10 09:35:00,
2013-02-10 04:36:00,46.8,32.0,30.21,NNE,24,0.0,0.0,56,0.00,,---,0.00,VWS V14.01,2013-02-10 09:36:00,
2013-02-10 04:40:00,42.7,32.9,30.23,ENE,62,0.0,3.0,68,0.00,,---,0.00,VWS V14.01,2013-02-10 09:40:00,
2013-02-10 04:41:00,46.9,32.0,30.21,NE,38,1.0,1.0,56,0.00,,---,0.00,VWS V14.01,2013-02-10 09:41:00,
2013-02-10 04:45:00,43.8,33.9,30.23,NW,314,0.0,2.0,68,0.00,,---,0.00,VWS V14.01,2013-02-10 09:45:00,
2013-02-10 04:46:00,47.1,32.2,30.21,NE,46,0.0,0.0,56,0.00,,---,0.00,VWS V14.01,2013-02-10 09:46:00,
2013-02-10 04:50:00,43.7,32.3,30.22,NW,319,0.0,1.0,64,0.00,,---,0.00,VWS V14.01,2013-02-10 09:50:00,
2013-02-10 04:51:00,47.3,32.0,30.21,North,359,0.0,0.0,55,0.00,,---,0.00,VWS V14.01,2013-02-10 09:51:00,
2013-02-10 04:55:00,44.3,32.1,30.22,ENE,69,3.0,4.0,62,0.00,,---,0.00,VWS V14.01,2013-02-10 09:55:00,
2013-02-10 04:56:00,47.3,32.0,30.21,NE,37,0.0,0.0,55,0.00,,---,0.00,VWS V14.01,2013-02-10 09:56:00,
2013-02-10 05:00:00,45.1,32.5,30.22,NE,50,1.0,4.0,61,0.00,,---,0.00,VWS V14.01,2013-02-10 10:00:00,
2013-02-10 05:01:00,47.5,32.6,30.22,East,80,1.0,2.0,56,0.00,,---,0.00,VWS V14.01,2013-02-10 10:01:00,
2013-02-10 05:05:00,46.2,32.7,30.22,East,79,2.0,8.0,59,0.00,,---,0.00,VWS V14.01,2013-02-10 10:05:00,
2013-02-10 05:06:00,47.6,32.2,30.22,NE,45,1.0,1.0,55,0.00,,---,0.00,VWS V14.01,2013-02-10 10:06:00,
2013-02-10 05:10:00,46.2,32.7,30.22,NE,41,0.0,2.0,59,0.00,,---,0.00,VWS V14.01,2013-02-10 10:10:00,
2013-02-10 05:11:00,47.7,31.4,30.22,ENE,66,0.0,1.0,53,0.00,,---,0.00,VWS V14.01,2013-02-10 10:11:00,
2013-02-10 05:15:00,46.1,32.6,30.22,NE,39,0.0,1.0,59,0.00,,---,0.00,VWS V14.01,2013-02-10 10:15:00,
2013-02-10 05:16:00,48.1,31.3,30.22,ENE,66,0.0,0.0,52,0.00,,---,0.00,VWS V14.01,2013-02-10 10:16:00,
2013-02-10 05:20:00,46.4,32.0,30.22,NE,36,0.0,3.0,57,0.00,,---,0.00,VWS V14.01,2013-02-10 10:20:00,
2013-02-10 05:21:00,48.1,31.3,30.22,NNE,31,1.0,1.0,52,0.00,,---,0.00,VWS V14.01,2013-02-10 10:21:00,
2013-02-10 05:25:00,46.6,32.2,30.22,NE,46,2.0,4.0,57,0.00,,---,0.00,VWS V14.01,2013-02-10 10:25:00,
2013-02-10 05:26:00,48.3,31.5,30.23,ENE,64,0.0,1.0,52,0.00,,---,0.00,VWS V14.01,2013-02-10 10:26:00,
2013-02-10 05:30:00,46.8,33.2,30.21,NNW,333,0.0,2.0,59,0.00,,---,0.00,VWS V14.01,2013-02-10 10:30:00,
2013-02-10 05:31:00,48.2,31.9,30.22,NE,53,0.0,1.0,53,0.00,,---,0.00,VWS V14.01,2013-02-10 10:31:00,
2013-02-10 05:35:00,46.8,32.4,30.21,NNE,25,0.0,5.0,57,0.00,,---,0.00,VWS V14.01,2013-02-10 10:35:00,
2013-02-10 05:36:00,48.1,31.8,30.23,ENE,64,3.0,4.0,53,0.00,,---,0.00,VWS V14.01,2013-02-10 10:36:00,
2013-02-10 05:40:00,46.9,32.0,30.21,NE,39,0.0,4.0,56,0.00,,---,0.00,VWS V14.01,2013-02-10 10:40:00,
2013-02-10 05:41:00,48.3,32.0,30.23,ENE,59,2.0,2.0,53,0.00,,---,0.00,VWS V14.01,2013-02-10 10:41:00,
2013-02-10 05:45:00,47.1,32.2,30.21,NE,45,0.0,2.0,56,0.00,,---,0.00,VWS V14.01,2013-02-10 10:45:00,
2013-02-10 05:46:00,48.3,32.0,30.22,NNE,30,6.0,6.0,53,0.00,,---,0.00,VWS V14.01,2013-02-10 10:46:00,
2013-02-10 05:50:00,47.3,32.0,30.21,North,359,0.0,3.0,55,0.00,,---,0.00,VWS V14.01,2013-02-10 10:50:00,
2013-02-10 05:51:00,48.3,32.4,30.22,NNE,17,3.0,5.0,54,0.00,,---,0.00,VWS V14.01,2013-02-10 10:51:00,
2013-02-10 05:55:00,47.3,32.0,30.21,NE,37,0.0,2.0,55,0.00,,---,0.00,VWS V14.01,2013-02-10 10:55:00,
2013-02-10 05:56:00,48.3,32.4,30.22,North,360,1.0,1.0,54,0.00,,---,0.00,VWS V14.01,2013-02-10 10:56:00,
2013-02-10 06:00:00,47.5,32.6,30.22,East,80,2.0,3.0,56,0.00,,---,0.00,VWS V14.01,2013-02-10 11:00:00,
2013-02-10 06:01:00,48.4,32.5,30.22,NE,36,5.0,5.0,54,0.00,,---,0.00,VWS V14.01,2013-02-10 11:01:00,
2013-02-10 06:05:00,47.6,32.2,30.22,NNE,23,1.0,4.0,55,0.00,,---,0.00,VWS V14.01,2013-02-10 11:05:00,
2013-02-10 06:06:00,48.5,32.2,30.22,ENE,59,3.0,4.0,53,0.00,,---,0.00,VWS V14.01,2013-02-10 11:06:00,
2013-02-10 06:10:00,47.7,31.4,30.22,ENE,68,1.0,3.0,53,0.00,,---,0.00,VWS V14.01,2013-02-10 11:10:00,
2013-02-10 06:11:00,48.6,32.3,30.22,North,8,3.0,4.0,53,0.00,,---,0.00,VWS V14.01,2013-02-10 11:11:00,
2013-02-10 06:15:00,48.1,31.3,30.22,ENE,66,0.0,3.0,52,0.00,,---,0.00,VWS V14.01,2013-02-10 11:15:00,
2013-02-10 06:16:00,48.6,32.3,30.22,East,90,2.0,4.0,53,0.00,,---,0.00,VWS V14.01,2013-02-10 11:16:00,
2013-02-10 06:20:00,48.1,31.3,30.22,NNE,32,0.0,4.0,52,0.00,,---,0.00,VWS V14.01,2013-02-10 11:20:00,
2013-02-10 06:21:00,48.5,32.2,30.23,NE,46,1.0,2.0,53,0.00,,---,0.00,VWS V14.01,2013-02-10 11:21:00,
2013-02-10 06:25:00,48.3,31.5,30.23,ENE,63,1.0,4.0,52,0.00,,---,0.00,VWS V14.01,2013-02-10 11:25:00,
2013-02-10 06:26:00,48.3,32.4,30.23,NNE,32,1.0,1.0,54,0.00,,---,0.00,VWS V14.01,2013-02-10 11:26:00,
2013-02-10 06:30:00,48.2,31.9,30.22,NE,52,1.0,4.0,53,0.00,,---,0.00,VWS V14.01,2013-02-10 11:30:00,
2013-02-10 06:31:00,48.1,32.3,30.22,ENE,58,0.0,0.0,54,0.00,,---,0.00,VWS V14.01,2013-02-10 11:31:00,
2013-02-10 06:35:00,48.1,31.8,30.23,East,87,2.0,3.0,53,0.00,,---,0.00,VWS V14.01,2013-02-10 11:35:00,
2013-02-10 06:36:00,47.8,32.4,30.23,ENE,67,2.0,2.0,55,0.00,,---,0.00,VWS V14.01,2013-02-10 11:36:00,
2013-02-10 06:40:00,48.3,32.0,30.23,East,85,1.0,5.0,53,0.00,,---,0.00,VWS V14.01,2013-02-10 11:40:00,
2013-02-10 06:41:00,47.6,32.2,30.23,NE,55,2.0,2.0,55,0.00,,---,0.00,VWS V14.01,2013-02-10 11:41:00,
2013-02-10 06:45:00,48.4,32.5,30.22,North,359,5.0,6.0,54,0.00,,---,0.00,VWS V14.01,2013-02-10 11:45:00,
2013-02-10 06:46:00,47.3,32.4,30.23,NE,50,1.0,1.0,56,0.00,,---,0.00,VWS V14.01,2013-02-10 11:46:00,
2013-02-10 06:50:00,48.2,31.9,30.22,NE,52,5.0,6.0,53,0.00,,---,0.00,VWS V14.01,2013-02-10 11:50:00,
2013-02-10 06:51:00,47.2,32.3,30.23,ENE,71,1.0,1.0,56,0.00,,---,0.00,VWS V14.01,2013-02-10 11:51:00,
2013-02-10 06:55:00,48.3,32.4,30.22,NNW,346,0.0,7.0,54,0.00,,---,0.00,VWS V14.01,2013-02-10 11:55:00,
2013-02-10 06:56:00,47.1,32.2,30.22,East,84,0.0,1.0,56,0.00,,---,0.00,VWS V14.01,2013-02-10 11:56:00,
2013-02-10 07:00:00,48.3,32.4,30.22,NE,39,2.0,6.0,54,0.00,,---,0.00,VWS V14.01,2013-02-10 12:00:00,
2013-02-10 07:01:00,46.9,32.5,30.22,East,80,0.0,1.0,57,0.00,,---,0.00,VWS V14.01,2013-02-10 12:01:00,
2013-02-10 07:05:00,48.5,32.2,30.22,ENE,72,3.0,6.0,53,0.00,,---,0.00,VWS V14.01,2013-02-10 12:05:00,
2013-02-10 07:06:00,46.7,32.3,30.21,East,98,0.0,0.0,57,0.00,,---,0.00,VWS V14.01,2013-02-10 12:06:00,
2013-02-10 07:10:00,48.7,32.3,30.22,NE,39,3.0,7.0,53,0.00,,---,0.00,VWS V14.01,2013-02-10 12:10:00,
2013-02-10 07:11:00,46.3,32.8,30.20,East,98,0.0,0.0,59,0.00,,---,0.00,VWS V14.01,2013-02-10 12:11:00,
2013-02-10 07:15:00,48.6,32.3,30.22,East,97,4.0,5.0,53,0.00,,---,0.00,VWS V14.01,2013-02-10 12:15:00,
2013-02-10 07:16:00,45.6,32.5,30.20,East,98,0.0,0.0,60,0.00,,---,0.00,VWS V14.01,2013-02-10 12:16:00,
2013-02-10 07:20:00,48.5,32.6,30.23,ENE,58,2.0,5.0,54,0.00,,---,0.00,VWS V14.01,2013-02-10 12:20:00,
2013-02-10 07:21:00,44.7,32.5,30.21,East,99,2.0,2.0,62,0.00,,---,0.00,VWS V14.01,2013-02-10 12:21:00,
2013-02-10 07:25:00,48.3,32.4,30.23,NE,38,1.0,3.0,54,0.00,,---,0.00,VWS V14.01,2013-02-10 12:25:00,
2013-02-10 07:26:00,44.7,32.1,30.22,East,88,1.0,1.0,61,0.00,,---,0.00,VWS V14.01,2013-02-10 12:26:00,
2013-02-10 07:30:00,48.1,32.3,30.23,ENE,58,0.0,4.0,54,0.00,,---,0.00,VWS V14.01,2013-02-10 12:30:00,
2013-02-10 07:31:00,44.5,32.3,30.22,ESE,109,2.0,2.0,62,0.00,,---,0.00,VWS V14.01,2013-02-10 12:31:00,
2013-02-10 07:35:00,47.8,32.4,30.22,ENE,73,1.0,3.0,55,0.00,,---,0.00,VWS V14.01,2013-02-10 12:35:00,
2013-02-10 07:36:00,44.0,32.2,30.23,SE,139,0.0,0.0,63,0.00,,---,0.00,VWS V14.01,2013-02-10 12:36:00,
2013-02-10 07:40:00,47.6,32.2,30.23,NE,51,0.0,2.0,55,0.00,,---,0.00,VWS V14.01,2013-02-10 12:40:00,
2013-02-10 07:41:00,43.3,32.3,30.23,SE,140,0.0,0.0,65,0.00,,---,0.00,VWS V14.01,2013-02-10 12:41:00,
2013-02-10 07:45:00,47.3,32.4,30.23,NE,50,0.0,2.0,56,0.00,,---,0.00,VWS V14.01,2013-02-10 12:45:00,
2013-02-10 07:46:00,43.7,32.3,30.22,NNW,335,0.0,0.0,64,0.00,,---,0.00,VWS V14.01,2013-02-10 12:46:00,
2013-02-10 07:50:00,47.2,32.3,30.23,ENE,71,1.0,4.0,56,0.00,,---,0.00,VWS V14.01,2013-02-10 12:50:00,
2013-02-10 07:51:00,44.0,31.8,30.22,ENE,72,6.0,6.0,62,0.00,,---,0.00,VWS V14.01,2013-02-10 12:51:00,
2013-02-10 07:55:00,47.1,32.2,30.22,East,85,0.0,3.0,56,0.00,,---,0.00,VWS V14.01,2013-02-10 12:55:00,
2013-02-10 07:56:00,44.8,32.2,30.22,NE,38,2.0,2.0,61,0.00,,---,0.00,VWS V14.01,2013-02-10 12:56:00,
2013-02-10 08:00:00,46.9,32.5,30.22,East,81,1.0,3.0,57,0.00,,---,0.00,VWS V14.01,2013-02-10 13:00:00,
2013-02-10 08:01:00,45.6,32.1,30.23,NNE,20,1.0,2.0,59,0.00,,---,0.00,VWS V14.01,2013-02-10 13:01:00,
2013-02-10 08:05:00,46.7,32.3,30.21,East,99,0.0,2.0,57,0.00,,---,0.00,VWS V14.01,2013-02-10 13:05:00,
2013-02-10 08:06:00,46.1,32.2,30.23,East,80,3.0,3.0,58,0.00,,---,0.00,VWS V14.01,2013-02-10 13:06:00,
2013-02-10 08:10:00,46.3,32.8,30.21,East,98,0.0,0.0,59,0.00,,---,0.00,VWS V14.01,2013-02-10 13:10:00,
2013-02-10 08:11:00,46.8,32.4,30.23,ENE,57,5.0,5.0,57,0.00,,---,0.00,VWS V14.01,2013-02-10 13:11:00,
2013-02-10 08:15:00,45.7,32.6,30.20,East,99,0.0,0.0,60,0.00,,---,0.00,VWS V14.01,2013-02-10 13:15:00,
2013-02-10 08:16:00,47.7,31.9,30.24,NNE,32,7.0,7.0,54,0.00,,---,0.00,VWS V14.01,2013-02-10 13:16:00,
2013-02-10 08:20:00,44.8,32.6,30.21,East,99,2.0,2.0,62,0.00,,---,0.00,VWS V14.01,2013-02-10 13:20:00,
2013-02-10 08:21:00,48.6,32.3,30.24,NNE,30,4.0,5.0,53,0.00,,---,0.00,VWS V14.01,2013-02-10 13:21:00,
2013-02-10 08:25:00,44.7,32.1,30.22,East,87,0.0,3.0,61,0.00,,---,0.00,VWS V14.01,2013-02-10 13:25:00,
2013-02-10 08:26:00,48.8,32.9,30.23,North,4,1.0,1.0,54,0.00,,---,0.00,VWS V14.01,2013-02-10 13:26:00,
2013-02-10 08:30:00,44.5,32.3,30.22,ESE,108,1.0,3.0,62,0.00,,---,0.00,VWS V14.01,2013-02-10 13:30:00,
2013-02-10 08:31:00,48.6,32.7,30.23,ENE,57,2.0,3.0,54,0.00,,---,0.00,VWS V14.01,2013-02-10 13:31:00,
2013-02-10 08:35:00,44.0,32.6,30.23,SE,139,0.0,2.0,64,0.00,,---,0.00,VWS V14.01,2013-02-10 13:35:00,
2013-02-10 08:36:00,48.5,32.6,30.23,NE,50,2.0,5.0,54,0.00,,---,0.00,VWS V14.01,2013-02-10 13:36:00,
2013-02-10 08:40:00,43.3,32.0,30.23,SE,139,0.0,1.0,64,0.00,,---,0.00,VWS V14.01,2013-02-10 13:40:00,
2013-02-10 08:41:00,48.5,32.2,30.23,ENE,68,1.0,2.0,53,0.00,,---,0.00,VWS V14.01,2013-02-10 13:41:00,
2013-02-10 08:45:00,43.7,32.3,30.22,NNW,336,0.0,5.0,64,0.00,,---,0.00,VWS V14.01,2013-02-10 13:45:00,
2013-02-10 08:46:00,48.4,32.1,30.23,NNE,31,1.0,4.0,53,0.00,,---,0.00,VWS V14.01,2013-02-10 13:46:00,
2013-02-10 08:50:00,44.0,31.8,30.22,NW,320,1.0,1.0,62,0.00,,---,0.00,VWS V14.01,2013-02-10 13:50:00,
2013-02-10 08:51:00,48.3,32.0,30.23,ENE,69,4.0,6.0,53,0.00,,---,0.00,VWS V14.01,2013-02-10 13:51:00,
2013-02-10 08:55:00,44.7,32.1,30.22,NE,39,1.0,6.0,61,0.00,,---,0.00,VWS V14.01,2013-02-10 13:55:00,
2013-02-10 08:56:00,48.2,31.9,30.23,East,85,6.0,6.0,53,0.00,,---,0.00,VWS V14.01,2013-02-10 13:56:00,
2013-02-10 09:00:00,45.5,32.0,30.23,North,358,2.0,4.0,59,0.00,,---,0.00,VWS V14.01,2013-02-10 14:00:00,
2013-02-10 09:01:00,48.1,31.8,30.23,ENE,68,4.0,4.0,53,0.00,,---,0.00,VWS V14.01,2013-02-10 14:01:00,
2013-02-10 09:05:00,46.1,32.2,30.23,East,79,3.0,4.0,58,0.00,,---,0.00,VWS V14.01,2013-02-10 14:05:00,
2013-02-10 09:06:00,48.2,31.9,30.24,ENE,75,3.0,5.0,53,0.00,,---,0.00,VWS V14.01,2013-02-10 14:06:00,
2013-02-10 09:10:00,46.7,32.3,30.23,NNW,343,1.0,6.0,57,0.00,,---,0.00,VWS V14.01,2013-02-10 14:10:00,
2013-02-10 09:11:00,48.3,32.0,30.23,NW,325,1.0,5.0,53,0.00,,---,0.00,VWS V14.01,2013-02-10 14:11:00,
2013-02-10 09:15:00,47.6,31.8,30.24,NNW,341,6.0,10.0,54,0.00,,---,0.00,VWS V14.01,2013-02-10 14:15:00,
2013-02-10 09:16:00,48.5,32.2,30.23,North,8,1.0,2.0,53,0.00,,---,0.00,VWS V14.01,2013-02-10 14:16:00,
2013-02-10 09:20:00,48.5,32.2,30.24,NNE,29,2.0,11.0,53,0.00,,---,0.00,VWS V14.01,2013-02-10 14:20:00,
2013-02-10 09:21:00,48.8,32.0,30.23,NNW,329,5.0,8.0,52,0.00,,---,0.00,VWS V14.01,2013-02-10 14:21:00,
2013-02-10 09:25:00,48.8,32.9,30.24,North,3,0.0,8.0,54,0.00,,---,0.00,VWS V14.01,2013-02-10 14:25:00,
2013-02-10 09:26:00,49.5,31.6,30.23,NE,47,5.0,16.0,50,0.00,,---,0.00,VWS V14.01,2013-02-10 14:26:00,
2013-02-10 09:30:00,48.6,32.7,30.24,ENE,61,1.0,3.0,54,0.00,,---,0.00,VWS V14.01,2013-02-10 14:30:00,
2013-02-10 09:31:00,50.3,31.9,30.23,NE,41,8.0,13.0,49,0.00,,---,0.00,VWS V14.01,2013-02-10 14:31:00,
2013-02-10 09:35:00,48.6,32.7,30.23,NE,41,2.0,4.0,54,0.00,,---,0.00,VWS V14.01,2013-02-10 14:35:00,
2013-02-10 09:36:00,50.8,32.3,30.23,North,8,4.0,5.0,49,0.00,,---,0.00,VWS V14.01,2013-02-10 14:36:00,
2013-02-10 09:40:00,48.5,31.7,30.23,NE,56,2.0,7.0,52,0.00,,---,0.00,VWS V14.01,2013-02-10 14:40:00,
2013-02-10 09:41:00,51.3,31.8,30.23,NW,311,4.0,11.0,47,0.00,,---,0.00,VWS V14.01,2013-02-10 14:41:00,
2013-02-10 09:45:00,48.4,32.1,30.23,ENE,73,2.0,6.0,53,0.00,,---,0.00,VWS V14.01,2013-02-10 14:45:00,
2013-02-10 09:46:00,52.0,32.4,30.23,NNE,26,3.0,7.0,47,0.00,,---,0.00,VWS V14.01,2013-02-10 14:46:00,
2013-02-10 09:50:00,48.3,31.5,30.23,ENE,57,1.0,8.0,52,0.00,,---,0.00,VWS V14.01,2013-02-10 14:50:00,
2013-02-10 09:51:00,52.4,32.2,30.23,NW,319,3.0,14.0,46,0.00,,---,0.00,VWS V14.01,2013-02-10 14:51:00,
2013-02-10 09:55:00,48.2,32.3,30.23,NE,53,3.0,6.0,54,0.00,,---,0.00,VWS V14.01,2013-02-10 14:55:00,
2013-02-10 09:56:00,52.7,32.0,30.23,ENE,60,5.0,9.0,45,0.00,,---,0.00,VWS V14.01,2013-02-10 14:56:00,
2013-02-10 10:00:00,48.1,31.8,30.22,NE,41,1.0,6.0,53,0.00,,---,0.00,VWS V14.01,2013-02-10 15:00:00,
2013-02-10 10:01:00,52.8,32.1,30.23,NNE,25,16.0,16.0,45,0.00,,---,0.00,VWS V14.01,2013-02-10 15:01:00,
2013-02-10 10:05:00,48.1,31.8,30.23,ENE,67,4.0,6.0,53,0.00,,---,0.00,VWS V14.01,2013-02-10 15:05:00,
2013-02-10 10:06:00,52.8,32.1,30.22,WNW,302,9.0,10.0,45,0.00,,---,0.00,VWS V14.01,2013-02-10 15:06:00,
2013-02-10 10:10:00,48.3,32.0,30.24,NNE,30,2.0,7.0,53,0.00,,---,0.00,VWS V14.01,2013-02-10 15:10:00,
2013-02-10 10:11:00,53.2,32.4,30.21,NNW,327,2.0,5.0,45,0.00,,---,0.00,VWS V14.01,2013-02-10 15:11:00,
2013-02-10 10:15:00,48.5,32.2,30.23,ENE,68,2.0,6.0,53,0.00,,---,0.00,VWS V14.01,2013-02-10 15:15:00,
2013-02-10 10:16:00,53.3,31.4,30.21,NNW,328,4.0,10.0,43,0.00,,---,0.00,VWS V14.01,2013-02-10 15:16:00,
2013-02-10 10:20:00,48.7,32.3,30.23,NE,46,3.0,6.0,53,0.00,,---,0.00,VWS V14.01,2013-02-10 15:20:00,
2013-02-10 10:21:00,53.1,31.8,30.21,NW,304,3.0,8.0,44,0.00,,---,0.00,VWS V14.01,2013-02-10 15:21:00,
2013-02-10 10:25:00,49.3,32.0,30.23,NE,49,16.0,18.0,51,0.00,,---,0.00,VWS V14.01,2013-02-10 15:25:00,
2013-02-10 10:26:00,52.9,31.6,30.20,NW,315,3.0,4.0,44,0.00,,---,0.00,VWS V14.01,2013-02-10 15:26:00,
2013-02-10 10:30:00,50.1,31.7,30.23,WNW,285,3.0,16.0,49,0.00,,---,0.00,VWS V14.01,2013-02-10 15:30:00,
2013-02-10 10:32:00,53.0,31.7,30.20,NW,321,5.0,11.0,44,0.00,,---,0.00,VWS V14.01,2013-02-10 15:32:00,
2013-02-10 10:35:00,50.7,31.7,30.23,NNW,341,5.0,13.0,48,0.00,,---,0.00,VWS V14.01,2013-02-10 15:35:00,
2013-02-10 10:37:00,53.0,32.2,30.20,NW,322,5.0,5.0,45,0.00,,---,0.00,VWS V14.01,2013-02-10 15:37:00,
2013-02-10 10:40:00,51.2,32.2,30.23,NE,46,10.0,15.0,48,0.00,,---,0.00,VWS V14.01,2013-02-10 15:40:00,
2013-02-10 10:42:00,53.3,32.5,30.20,West,262,6.0,10.0,45,0.00,,---,0.00,VWS V14.01,2013-02-10 15:42:00,
2013-02-10 10:45:00,51.8,32.2,30.23,NW,325,6.0,13.0,47,0.00,,---,0.00,VWS V14.01,2013-02-10 15:45:00,
2013-02-10 10:47:00,53.3,31.4,30.20,WNW,301,3.0,13.0,43,0.00,,---,0.00,VWS V14.01,2013-02-10 15:47:00,
2013-02-10 10:50:00,52.3,32.2,30.23,ENE,71,6.0,15.0,46,0.00,,---,0.00,VWS V14.01,2013-02-10 15:50:00,
2013-02-10 10:52:00,53.3,32.0,30.20,NNE,18,5.0,11.0,44,0.00,,---,0.00,VWS V14.01,2013-02-10 15:52:00,
2013-02-10 10:55:00,52.7,32.0,30.22,ENE,61,2.0,15.0,45,0.00,,---,0.00,VWS V14.01,2013-02-10 15:55:00,
2013-02-10 10:57:00,53.4,32.0,30.21,NNE,31,7.0,7.0,44,0.00,,---,0.00,VWS V14.01,2013-02-10 15:57:00,
2013-02-10 11:00:00,52.8,32.1,30.23,NE,50,10.0,10.0,45,0.00,,---,0.00,VWS V14.01,2013-02-10 16:00:00,
2013-02-10 11:02:00,53.7,31.8,30.21,SW,224,4.0,9.0,43,0.00,,---,0.00,VWS V14.01,2013-02-10 16:02:00,
2013-02-10 11:05:00,52.7,31.4,30.22,North,4,10.0,21.0,44,0.00,,---,0.00,VWS V14.01,2013-02-10 16:05:00,
2013-02-10 11:07:00,54.0,32.0,30.21,NNE,24,9.0,10.0,43,0.00,,---,0.00,VWS V14.01,2013-02-10 16:07:00,
2013-02-10 11:10:00,53.1,31.8,30.21,West,277,5.0,14.0,44,0.00,,---,0.00,VWS V14.01,2013-02-10 16:10:00,
2013-02-10 11:12:00,54.1,31.5,30.19,NNW,330,7.0,8.0,42,0.00,,---,0.00,VWS V14.01,2013-02-10 16:12:00,
2013-02-10 11:15:00,53.4,32.0,30.21,NNW,347,9.0,12.0,44,0.00,,---,0.00,VWS V14.01,2013-02-10 16:15:00,
2013-02-10 11:17:00,54.3,31.1,30.19,NE,53,5.0,11.0,41,0.00,,---,0.00,VWS V14.01,2013-02-10 16:17:00,
2013-02-10 11:20:00,53.1,31.8,30.21,ENE,66,2.0,10.0,44,0.00,,---,0.00,VWS V14.01,2013-02-10 16:20:00,
2013-02-10 11:22:00,54.5,31.3,30.19,NNE,19,3.0,6.0,41,0.00,,---,0.00,VWS V14.01,2013-02-10 16:22:00,
2013-02-10 11:25:00,52.9,31.6,30.20,NNE,27,4.0,11.0,44,0.00,,---,0.00,VWS V14.01,2013-02-10 16:25:00,
2013-02-10 11:27:00,54.7,30.9,30.18,North,352,8.0,15.0,40,0.00,,---,0.00,VWS V14.01,2013-02-10 16:27:00,
2013-02-10 11:30:00,52.9,32.2,30.20,ENE,58,4.0,7.0,45,0.00,,---,0.00,VWS V14.01,2013-02-10 16:30:00,
2013-02-10 11:32:00,54.9,31.0,30.17,North,8,5.0,6.0,40,0.00,,---,0.00,VWS V14.01,2013-02-10 16:32:00,
2013-02-10 11:35:00,53.0,31.7,30.20,North,5,2.0,11.0,44,0.00,,---,0.00,VWS V14.01,2013-02-10 16:35:00,
2013-02-10 11:37:00,54.9,30.4,30.17,NW,321,2.0,5.0,39,0.00,,---,0.00,VWS V14.01,2013-02-10 16:37:00,
2013-02-10 11:40:00,53.2,31.9,30.20,NE,34,4.0,12.0,44,0.00,,---,0.00,VWS V14.01,2013-02-10 16:40:00,
2013-02-10 11:42:00,55.0,29.9,30.17,NNW,346,7.0,12.0,38,0.00,,---,0.00,VWS V14.01,2013-02-10 16:42:00,
2013-02-10 11:45:00,53.3,31.4,30.20,NW,326,12.0,14.0,43,0.00,,---,0.00,VWS V14.01,2013-02-10 16:45:00,
2013-02-10 11:47:00,54.9,29.8,30.17,NNE,18,2.0,9.0,38,0.00,,---,0.00,VWS V14.01,2013-02-10 16:47:00,
2013-02-10 11:50:00,53.3,32.0,30.20,East,87,1.0,13.0,44,0.00,,---,0.00,VWS V14.01,2013-02-10 16:50:00,
2013-02-10 11:52:00,54.9,29.8,30.17,NNW,338,5.0,9.0,38,0.00,,---,0.00,VWS V14.01,2013-02-10 16:52:00,
2013-02-10 11:55:00,53.4,31.5,30.20,NNW,339,6.0,15.0,43,0.00,,---,0.00,VWS V14.01,2013-02-10 16:55:00,
2013-02-10 11:57:00,54.9,29.1,30.16,North,4,5.0,8.0,37,0.00,,---,0.00,VWS V14.01,2013-02-10 16:57:00,
2013-02-10 12:00:00,53.6,31.7,30.21,North,357,5.0,10.0,43,0.00,,---,0.00,VWS V14.01,2013-02-10 17:00:00,
2013-02-10 12:02:00,55.0,27.9,30.16,NNW,338,10.0,23.0,35,0.00,,---,0.00,VWS V14.01,2013-02-10 17:02:00,
2013-02-10 12:05:00,53.9,32.5,30.21,NE,52,10.0,10.0,44,0.00,,---,0.00,VWS V14.01,2013-02-10 17:05:00,
2013-02-10 12:07:00,55.1,28.0,30.16,NNE,17,11.0,11.0,35,0.00,,---,0.00,VWS V14.01,2013-02-10 17:07:00,
2013-02-10 12:10:00,54.1,31.5,30.20,North,349,5.0,12.0,42,0.00,,---,0.00,VWS V14.01,2013-02-10 17:10:00,
2013-02-10 12:12:00,55.2,27.3,30.15,NE,36,14.0,14.0,34,0.00,,---,0.00,VWS V14.01,2013-02-10 17:12:00,
2013-02-10 12:15:00,54.2,31.6,30.19,West,261,5.0,10.0,42,0.00,,---,0.00,VWS V14.01,2013-02-10 17:15:00,
2013-02-10 12:17:00,55.3,27.4,30.15,North,360,11.0,17.0,34,0.00,,---,0.00,VWS V14.01,2013-02-10 17:17:00,
2013-02-10 12:20:00,54.4,31.2,30.19,NNE,29,4.0,11.0,41,0.00,,---,0.00,VWS V14.01,2013-02-10 17:20:00,
2013-02-10 12:22:00,55.4,27.5,30.15,West,269,4.0,13.0,34,0.00,,---,0.00,VWS V14.01,2013-02-10 17:22:00,
2013-02-10 12:25:00,54.6,31.4,30.18,NNE,33,7.0,15.0,41,0.00,,---,0.00,VWS V14.01,2013-02-10 17:25:00,
2013-02-10 12:27:00,55.5,27.6,30.14,NNE,23,13.0,15.0,34,0.00,,---,0.00,VWS V14.01,2013-02-10 17:27:00,
2013-02-10 12:30:00,54.9,31.0,30.18,NNE,32,4.0,15.0,40,0.00,,---,0.00,VWS V14.01,2013-02-10 17:30:00,
2013-02-10 12:32:00,55.7,27.8,30.13,North,359,17.0,20.0,34,0.00,,---,0.00,VWS V14.01,2013-02-10 17:32:00,
2013-02-10 12:35:00,54.9,30.4,30.17,NNE,19,2.0,11.0,39,0.00,,---,0.00,VWS V14.01,2013-02-10 17:35:00,
2013-02-10 12:37:00,55.7,28.5,30.13,NW,326,6.0,10.0,35,0.00,,---,0.00,VWS V14.01,2013-02-10 17:37:00,
2013-02-10 12:40:00,55.0,30.5,30.17,NNE,27,3.0,12.0,39,0.00,,---,0.00,VWS V14.01,2013-02-10 17:40:00,
2013-02-10 12:42:00,55.7,28.5,30.13,NE,52,6.0,8.0,35,0.00,,---,0.00,VWS V14.01,2013-02-10 17:42:00,
2013-02-10 12:45:00,54.9,29.8,30.17,NNW,335,4.0,13.0,38,0.00,,---,0.00,VWS V14.01,2013-02-10 17:45:00,
2013-02-10 12:47:00,55.7,28.5,30.12,NNW,338,7.0,15.0,35,0.00,,---,0.00,VWS V14.01,2013-02-10 17:47:00,
2013-02-10 12:50:00,54.9,29.1,30.17,NW,323,6.0,14.0,37,0.00,,---,0.00,VWS V14.01,2013-02-10 17:50:00,
2013-02-10 12:52:00,55.7,29.2,30.13,North,352,7.0,7.0,36,0.00,,---,0.00,VWS V14.01,2013-02-10 17:52:00,
2013-02-10 12:55:00,54.9,29.1,30.16,ENE,65,5.0,11.0,37,0.00,,---,0.00,VWS V14.01,2013-02-10 17:55:00,
2013-02-10 12:57:00,55.6,29.1,30.12,NNW,334,2.0,9.0,36,0.00,,---,0.00,VWS V14.01,2013-02-10 17:57:00,
2013-02-10 13:00:00,55.0,28.6,30.16,NNW,334,14.0,23.0,36,0.00,,---,0.00,VWS V14.01,2013-02-10 18:00:00,
2013-02-10 13:02:00,55.7,29.9,30.12,NNE,22,8.0,15.0,37,0.00,,---,0.00,VWS V14.01,2013-02-10 18:02:00,
2013-02-10 13:05:00,55.0,27.9,30.16,ENE,72,5.0,23.0,35,0.00,,---,0.00,VWS V14.01,2013-02-10 18:05:00,
2013-02-10 13:07:00,55.7,30.5,30.12,NW,315,4.0,15.0,38,0.00,,---,0.00,VWS V14.01,2013-02-10 18:07:00,
2013-02-10 13:10:00,55.2,27.3,30.15,NNE,15,6.0,18.0,34,0.00,,---,0.00,VWS V14.01,2013-02-10 18:10:00,
2013-02-10 13:12:00,55.6,31.1,30.12,NNW,332,14.0,18.0,39,0.00,,---,0.00,VWS V14.01,2013-02-10 18:12:00,
2013-02-10 13:15:00,55.3,27.4,30.15,North,10,9.0,14.0,34,0.00,,---,0.00,VWS V14.01,2013-02-10 18:15:00,
2013-02-10 13:17:00,55.6,31.7,30.11,NNW,333,3.0,13.0,40,0.00,,---,0.00,VWS V14.01,2013-02-10 18:17:00,
2013-02-10 13:20:00,55.4,26.8,30.15,West,278,10.0,20.0,33,0.00,,---,0.00,VWS V14.01,2013-02-10 18:20:00,
2013-02-10 13:22:00,55.6,32.3,30.11,WNW,297,3.0,8.0,41,0.00,,---,0.00,VWS V14.01,2013-02-10 18:22:00,
2013-02-10 13:25:00,55.5,27.6,30.14,NNE,22,5.0,13.0,34,0.00,,---,0.00,VWS V14.01,2013-02-10 18:25:00,
2013-02-10 13:27:00,55.6,32.3,30.11,NW,326,7.0,24.0,41,0.00,,---,0.00,VWS V14.01,2013-02-10 18:27:00,
2013-02-10 13:30:00,55.7,27.8,30.13,NNE,20,6.0,19.0,34,0.00,,---,0.00,VWS V14.01,2013-02-10 18:30:00,
2013-02-10 13:32:00,55.5,32.8,30.10,NE,52,8.0,11.0,42,0.00,,---,0.00,VWS V14.01,2013-02-10 18:32:00,
2013-02-10 13:35:00,55.7,28.5,30.13,NE,38,4.0,20.0,35,0.00,,---,0.00,VWS V14.01,2013-02-10 18:35:00,
2013-02-10 13:37:00,55.4,33.3,30.10,ENE,61,11.0,11.0,43,0.00,,---,0.00,VWS V14.01,2013-02-10 18:37:00,
2013-02-10 13:40:00,55.7,28.5,30.13,NNW,329,5.0,13.0,35,0.00,,---,0.00,VWS V14.01,2013-02-10 18:40:00,
2013-02-10 13:42:00,55.3,33.8,30.10,ENE,60,4.0,13.0,44,0.00,,---,0.00,VWS V14.01,2013-02-10 18:42:00,
2013-02-10 13:45:00,55.7,28.5,30.12,NNW,328,8.0,17.0,35,0.00,,---,0.00,VWS V14.01,2013-02-10 18:45:00,
2013-02-10 13:47:00,55.2,34.2,30.10,WNW,293,8.0,10.0,45,0.00,,---,0.00,VWS V14.01,2013-02-10 18:47:00,
2013-02-10 13:50:00,55.7,29.2,30.12,NW,314,6.0,15.0,36,0.00,,---,0.00,VWS V14.01,2013-02-10 18:50:00,
2013-02-10 13:52:00,54.9,36.1,30.10,North,349,9.0,11.0,49,0.00,,---,0.00,VWS V14.01,2013-02-10 18:52:00,
2013-02-10 13:55:00,55.6,29.1,30.12,NNW,334,3.0,14.0,36,0.00,,---,0.00,VWS V14.01,2013-02-10 18:55:00,
2013-02-10 13:57:00,54.3,38.0,30.10,ENE,57,3.0,6.0,54,0.00,,---,0.00,VWS V14.01,2013-02-10 18:57:00,
2013-02-10 14:00:00,55.6,29.8,30.12,WSW,253,9.0,16.0,37,0.00,,---,0.00,VWS V14.01,2013-02-10 19:00:00,
2013-02-10 14:02:00,52.9,39.8,30.09,NNW,339,6.0,16.0,61,0.01,,---,0.01,VWS V14.01,2013-02-10 19:02:00,
2013-02-10 14:05:00,55.7,30.5,30.12,WNW,298,4.0,15.0,38,0.00,,---,0.00,VWS V14.01,2013-02-10 19:05:00,
2013-02-10 14:07:00,51.6,41.0,30.09,ENE,75,1.0,5.0,67,0.02,,---,0.02,VWS V14.01,2013-02-10 19:07:00,
2013-02-10 14:10:00,55.6,30.4,30.11,NNW,328,7.0,15.0,38,0.00,,---,0.00,VWS V14.01,2013-02-10 19:10:00,
2013-02-10 14:12:00,50.8,41.0,30.08,NNE,23,2.0,7.0,69,0.02,,---,0.02,VWS V14.01,2013-02-10 19:12:00,
2013-02-10 14:15:00,55.6,31.7,30.11,NNW,338,7.0,18.0,40,0.00,,---,0.00,VWS V14.01,2013-02-10 19:15:00,
2013-02-10 14:17:00,50.2,41.9,30.08,ENE,60,3.0,3.0,73,0.02,,---,0.02,VWS V14.01,2013-02-10 19:17:00,
2013-02-10 14:20:00,55.6,31.7,30.11,NNE,29,3.0,13.0,40,0.00,,---,0.00,VWS V14.01,2013-02-10 19:20:00,
2013-02-10 14:22:00,49.7,42.5,30.08,NNE,20,4.0,4.0,76,0.03,,---,0.03,VWS V14.01,2013-02-10 19:22:00,
2013-02-10 14:25:00,55.5,32.2,30.11,NW,323,9.0,24.0,41,0.00,,---,0.00,VWS V14.01,2013-02-10 19:25:00,
2013-02-10 14:27:00,49.2,43.0,30.07,NE,41,0.0,2.0,79,0.03,,---,0.03,VWS V14.01,2013-02-10 19:27:00,
2013-02-10 14:30:00,55.5,32.8,30.11,North,1,5.0,24.0,42,0.00,,---,0.00,VWS V14.01,2013-02-10 19:30:00,
2013-02-10 14:32:00,48.9,43.3,30.07,NNE,12,0.0,1.0,81,0.04,,---,0.04,VWS V14.01,2013-02-10 19:32:00,
2013-02-10 14:35:00,55.5,33.4,30.10,NW,321,2.0,19.0,43,0.00,,---,0.00,VWS V14.01,2013-02-10 19:35:00,
2013-02-10 14:37:00,48.5,43.3,30.07,NE,52,0.0,2.0,82,0.05,,---,0.05,VWS V14.01,2013-02-10 19:37:00,
2013-02-10 14:40:00,55.4,33.3,30.10,NW,322,4.0,11.0,43,0.00,,---,0.00,VWS V14.01,2013-02-10 19:40:00,
2013-02-10 14:42:00,48.3,44.0,30.06,NNE,27,0.0,1.0,85,0.06,,---,0.06,VWS V14.01,2013-02-10 19:42:00,
2013-02-10 14:45:00,55.3,33.8,30.10,North,355,8.0,13.0,44,0.00,,---,0.00,VWS V14.01,2013-02-10 19:45:00,
2013-02-10 14:47:00,48.1,44.4,30.06,ENE,62,0.0,1.0,87,0.06,,---,0.06,VWS V14.01,2013-02-10 19:47:00,
2013-02-10 14:50:00,55.1,35.8,30.10,NE,34,6.0,12.0,48,0.00,,---,0.00,VWS V14.01,2013-02-10 19:50:00,
2013-02-10 14:53:00,48.0,44.3,30.06,NE,56,1.0,2.0,87,0.06,,---,0.06,VWS V14.01,2013-02-10 19:53:00,
2013-02-10 14:55:00,54.6,36.8,30.10,WNW,284,2.0,11.0,51,0.00,,---,0.00,VWS V14.01,2013-02-10 19:55:00,
2013-02-10 14:58:00,48.0,44.9,30.05,NE,38,2.0,2.0,89,0.06,,---,0.06,VWS V14.01,2013-02-10 19:58:00,
2013-02-10 15:00:00,53.4,39.5,30.10,North,355,14.0,14.0,59,0.01,,---,0.01,VWS V14.01,2013-02-10 20:00:00,
2013-02-10 15:03:00,47.8,44.4,30.05,NNW,334,0.0,1.0,88,0.05,,---,0.06,VWS V14.01,2013-02-10 20:03:00,
2013-02-10 15:05:00,52.1,40.7,30.09,NNW,339,1.0,16.0,65,0.02,,---,0.02,VWS V14.01,2013-02-10 20:05:00,
2013-02-10 15:08:00,47.7,44.3,30.05,ENE,63,1.0,3.0,88,0.05,,---,0.07,VWS V14.01,2013-02-10 20:08:00,
2013-02-10 15:10:00,51.1,41.3,30.09,North,1,5.0,5.0,69,0.02,,---,0.02,VWS V14.01,2013-02-10 20:10:00,
2013-02-10 15:13:00,47.6,44.5,30.05,NE,37,1.0,1.0,89,0.06,,---,0.08,VWS V14.01,2013-02-10 20:13:00,
2013-02-10 15:15:00,50.4,41.4,30.08,NNE,12,2.0,7.0,71,0.02,,---,0.02,VWS V14.01,2013-02-10 20:15:00,
2013-02-10 15:18:00,47.4,44.6,30.05,NE,56,1.0,3.0,90,0.07,,---,0.09,VWS V14.01,2013-02-10 20:18:00,
2013-02-10 15:20:00,49.9,42.3,30.08,East,83,1.0,3.0,75,0.03,,---,0.03,VWS V14.01,2013-02-10 20:20:00,
2013-02-10 15:23:00,47.4,44.9,30.06,ENE,57,0.0,3.0,91,0.07,,---,0.10,VWS V14.01,2013-02-10 20:23:00,
2013-02-10 15:25:00,49.4,42.8,30.08,ENE,64,0.0,4.0,78,0.03,,---,0.03,VWS V14.01,2013-02-10 20:25:00,
2013-02-10 15:28:00,47.2,44.7,30.05,East,96,1.0,2.0,91,0.08,,---,0.11,VWS V14.01,2013-02-10 20:28:00,
2013-02-10 15:30:00,49.1,43.5,30.07,NE,49,1.0,2.0,81,0.04,,---,0.04,VWS V14.01,2013-02-10 20:30:00,
2013-02-10 15:33:00,46.9,44.4,30.05,ENE,71,2.0,4.0,91,0.09,,---,0.13,VWS V14.01,2013-02-10 20:33:00,
2013-02-10 15:35:00,48.7,43.8,30.07,ENE,58,1.0,2.0,83,0.05,,---,0.05,VWS V14.01,2013-02-10 20:35:00,
2013-02-10 15:38:00,46.7,44.2,30.03,East,91,0.0,4.0,91,0.09,,---,0.14,VWS V14.01,2013-02-10 20:38:00,
2013-02-10 15:40:00,48.4,43.8,30.06,NE,53,0.0,2.0,84,0.05,,---,0.05,VWS V14.01,2013-02-10 20:40:00,
2013-02-10 15:43:00,46.5,44.0,30.04,ENE,69,3.0,4.0,91,0.10,,---,0.15,VWS V14.01,2013-02-10 20:43:00,
2013-02-10 15:45:00,48.2,44.2,30.06,ENE,63,0.0,2.0,86,0.06,,---,0.06,VWS V14.01,2013-02-10 20:45:00,
2013-02-10 15:48:00,46.5,44.3,30.04,NE,52,4.0,9.0,92,0.10,,---,0.16,VWS V14.01,2013-02-10 20:48:00,
2013-02-10 15:50:00,48.0,44.3,30.06,ENE,62,0.0,1.0,87,0.06,,---,0.06,VWS V14.01,2013-02-10 20:50:00,
2013-02-10 15:53:00,46.7,44.5,30.05,ENE,62,5.0,6.0,92,0.10,,---,0.16,VWS V14.01,2013-02-10 20:53:00,
2013-02-10 15:55:00,48.0,44.9,30.05,NE,56,0.0,2.0,89,0.06,,---,0.06,VWS V14.01,2013-02-10 20:55:00,
2013-02-10 15:58:00,46.8,44.6,30.04,ESE,122,3.0,4.0,92,0.12,,---,0.18,VWS V14.01,2013-02-10 20:58:00,
2013-02-10 16:00:00,47.9,44.5,30.05,NNW,333,0.0,2.0,88,0.06,,---,0.06,VWS V14.01,2013-02-10 21:00:00,
2013-02-10 16:03:00,46.8,44.6,30.05,ENE,78,0.0,2.0,92,0.14,,---,0.20,VWS V14.01,2013-02-10 21:03:00,
2013-02-10 16:05:00,47.7,44.3,30.05,ENE,69,1.0,2.0,88,0.06,,---,0.07,VWS V14.01,2013-02-10 21:05:00,
2013-02-10 16:08:00,46.8,44.6,30.05,East,80,3.0,4.0,92,0.15,,---,0.22,VWS V14.01,2013-02-10 21:08:00,
2013-02-10 16:10:00,47.6,44.5,30.05,ENE,62,0.0,3.0,89,0.05,,---,0.07,VWS V14.01,2013-02-10 21:10:00,
2013-02-10 16:13:00,46.7,44.8,30.05,East,86,2.0,2.0,93,0.18,,---,0.25,VWS V14.01,2013-02-10 21:13:00,
2013-02-10 16:15:00,47.5,44.4,30.05,ENE,76,3.0,3.0,89,0.06,,---,0.08,VWS V14.01,2013-02-10 21:15:00,
2013-02-10 16:18:00,46.7,44.8,30.05,ENE,60,3.0,3.0,93,0.21,,---,0.29,VWS V14.01,2013-02-10 21:18:00,
2013-02-10 16:20:00,47.4,44.6,30.05,NE,55,0.0,3.0,90,0.07,,---,0.09,VWS V14.01,2013-02-10 21:20:00,
2013-02-10 16:23:00,46.6,45.0,30.05,ENE,69,2.0,6.0,94,0.24,,---,0.33,VWS V14.01,2013-02-10 21:23:00,
2013-02-10 16:25:00,47.3,44.8,30.06,NE,54,2.0,3.0,91,0.07,,---,0.10,VWS V14.01,2013-02-10 21:25:00,
2013-02-10 16:28:00,46.6,45.0,30.05,ENE,59,2.0,2.0,94,0.27,,---,0.37,VWS V14.01,2013-02-10 21:28:00,
2013-02-10 16:30:00,47.0,44.2,30.05,ENE,76,1.0,4.0,90,0.09,,---,0.12,VWS V14.01,2013-02-10 21:30:00,
2013-02-10 16:33:00,46.6,45.2,30.04,NE,52,0.0,3.0,95,0.28,,---,0.40,VWS V14.01,2013-02-10 21:33:00,
2013-02-10 16:35:00,46.8,44.3,30.04,East,84,1.0,4.0,91,0.09,,---,0.13,VWS V14.01,2013-02-10 21:35:00,
2013-02-10 16:38:00,46.7,45.3,30.03,ENE,59,2.0,3.0,95,0.31,,---,0.44,VWS V14.01,2013-02-10 21:38:00,
2013-02-10 16:40:00,46.7,44.5,30.03,East,101,1.0,4.0,92,0.09,,---,0.14,VWS V14.01,2013-02-10 21:40:00,
2013-02-10 16:43:00,46.7,45.3,30.03,ENE,58,2.0,5.0,95,0.32,,---,0.46,VWS V14.01,2013-02-10 21:43:00,
2013-02-10 16:45:00,46.5,44.3,30.04,NW,323,1.0,4.0,92,0.10,,---,0.15,VWS V14.01,2013-02-10 21:45:00,
2013-02-10 16:48:00,46.8,45.5,30.04,ENE,73,2.0,4.0,95,0.32,,---,0.47,VWS V14.01,2013-02-10 21:48:00,
2013-02-10 16:50:00,46.6,44.4,30.04,NE,53,6.0,9.0,92,0.10,,---,0.16,VWS V14.01,2013-02-10 21:50:00,
2013-02-10 16:53:00,46.9,45.8,30.05,ENE,65,4.0,5.0,96,0.32,,---,0.48,VWS V14.01,2013-02-10 21:53:00,
2013-02-10 16:55:00,46.7,44.5,30.04,ENE,60,2.0,9.0,92,0.11,,---,0.17,VWS V14.01,2013-02-10 21:55:00,
2013-02-10 16:58:00,47.0,45.9,30.05,ENE,69,3.0,7.0,96,0.35,,---,0.52,VWS V14.01,2013-02-10 21:58:00,
2013-02-10 17:00:00,46.8,44.6,30.05,NE,45,1.0,4.0,92,0.13,,---,0.19,VWS V14.01,2013-02-10 22:00:00,
2013-02-10 17:03:00,47.1,46.0,30.04,NNE,30,2.0,7.0,96,0.36,,---,0.55,VWS V14.01,2013-02-10 22:03:00,
2013-02-10 17:05:00,46.8,44.6,30.05,NE,50,3.0,4.0,92,0.15,,---,0.21,VWS V14.01,2013-02-10 22:05:00,
2013-02-10 17:08:00,47.2,46.1,30.03,East,79,1.0,5.0,96,0.37,,---,0.58,VWS V14.01,2013-02-10 22:08:00,
2013-02-10 17:10:00,46.8,44.9,30.05,NE,39,0.0,4.0,93,0.17,,---,0.24,VWS V14.01,2013-02-10 22:10:00,
2013-02-10 17:13:00,47.3,46.2,30.04,ESE,104,3.0,5.0,96,0.36,,---,0.60,VWS V14.01,2013-02-10 22:13:00,
2013-02-10 17:15:00,46.7,44.8,30.05,ENE,60,3.0,6.0,93,0.20,,---,0.27,VWS V14.01,2013-02-10 22:15:00,
2013-02-10 17:18:00,47.4,46.3,30.05,ENE,62,1.0,4.0,96,0.34,,---,0.61,VWS V14.01,2013-02-10 22:18:00,
2013-02-10 17:20:00,46.7,45.1,30.05,ENE,63,2.0,4.0,94,0.23,,---,0.31,VWS V14.01,2013-02-10 22:20:00,
2013-02-10 17:23:00,47.4,46.3,30.05,NE,45,2.0,4.0,96,0.31,,---,0.62,VWS V14.01,2013-02-10 22:23:00,
2013-02-10 17:25:00,46.6,45.0,30.05,North,6,2.0,6.0,94,0.26,,---,0.35,VWS V14.01,2013-02-10 22:25:00,
2013-02-10 17:28:00,47.6,46.8,30.06,NE,46,6.0,7.0,97,0.27,,---,0.62,VWS V14.01,2013-02-10 22:28:00,
2013-02-10 17:30:00,46.6,45.0,30.05,NE,36,2.0,4.0,94,0.29,,---,0.39,VWS V14.01,2013-02-10 22:30:00,
2013-02-10 17:33:00,47.7,46.9,30.07,NE,50,4.0,11.0,97,0.23,,---,0.62,VWS V14.01,2013-02-10 22:33:00,
2013-02-10 17:35:00,46.6,45.2,30.03,NNW,336,0.0,3.0,95,0.30,,---,0.42,VWS V14.01,2013-02-10 22:35:00,
2013-02-10 17:38:00,48.0,47.2,30.08,North,6,3.0,12.0,97,0.21,,---,0.63,VWS V14.01,2013-02-10 22:38:00,
2013-02-10 17:40:00,46.7,45.3,30.04,NE,48,3.0,5.0,95,0.32,,---,0.45,VWS V14.01,2013-02-10 22:40:00,
2013-02-10 17:43:00,48.2,47.1,30.09,ENE,59,6.0,7.0,96,0.19,,---,0.64,VWS V14.01,2013-02-10 22:43:00,
2013-02-10 17:45:00,46.7,45.3,30.04,ENE,57,3.0,5.0,95,0.32,,---,0.46,VWS V14.01,2013-02-10 22:45:00,
2013-02-10 17:48:00,48.3,47.2,30.09,NE,46,5.0,8.0,96,0.19,,---,0.65,VWS V14.01,2013-02-10 22:48:00,
2013-02-10 17:50:00,46.8,45.7,30.05,ENE,70,2.0,5.0,96,0.32,,---,0.47,VWS V14.01,2013-02-10 22:50:00,
2013-02-10 17:53:00,48.4,47.3,30.06,NNE,29,10.0,10.0,96,0.20,,---,0.67,VWS V14.01,2013-02-10 22:53:00,
2013-02-10 17:55:00,46.9,45.8,30.04,ENE,60,1.0,5.0,96,0.34,,---,0.50,VWS V14.01,2013-02-10 22:55:00,
2013-02-10 17:58:00,48.4,47.3,30.04,NNW,333,5.0,8.0,96,0.19,,---,0.69,VWS V14.01,2013-02-10 22:58:00,
2013-02-10 18:00:00,47.0,45.9,30.05,NE,46,7.0,8.0,96,0.37,,---,0.54,VWS V14.01,2013-02-10 23:00:00,
2013-02-10 18:03:00,48.4,47.3,30.06,ENE,60,11.0,13.0,96,0.16,,---,0.70,VWS V14.01,2013-02-10 23:03:00,
2013-02-10 18:05:00,47.2,46.1,30.04,NE,52,5.0,7.0,96,0.37,,---,0.56,VWS V14.01,2013-02-10 23:05:00,
2013-02-10 18:08:00,48.6,47.5,30.05,NE,49,8.0,12.0,96,0.15,,---,0.71,VWS V14.01,2013-02-10 23:08:00,
2013-02-10 18:10:00,47.3,46.2,30.02,NE,39,1.0,5.0,96,0.38,,---,0.59,VWS V14.01,2013-02-10 23:10:00,
2013-02-10 18:13:00,48.7,47.6,30.07,NNE,32,5.0,11.0,96,0.12,,---,0.71,VWS V14.01,2013-02-10 23:13:00,
2013-02-10 18:15:00,47.3,46.2,30.05,ESE,102,1.0,5.0,96,0.37,,---,0.61,VWS V14.01,2013-02-10 23:15:00,
2013-02-10 18:18:00,48.9,47.8,30.07,WNW,297,6.0,9.0,96,0.10,,---,0.71,VWS V14.01,2013-02-10 23:18:00,
2013-02-10 18:20:00,47.4,46.3,30.05,East,90,0.0,4.0,96,0.35,,---,0.62,VWS V14.01,2013-02-10 23:20:00,
2013-02-10 18:23:00,49.0,47.9,30.07,East,89,4.0,12.0,96,0.10,,---,0.72,VWS V14.01,2013-02-10 23:23:00,
2013-02-10 18:25:00,47.4,46.6,30.06,NE,46,3.0,5.0,97,0.31,,---,0.62,VWS V14.01,2013-02-10 23:25:00,
2013-02-10 18:28:00,49.2,47.8,30.07,NW,315,3.0,10.0,95,0.10,,---,0.72,VWS V14.01,2013-02-10 23:28:00,
2013-02-10 18:30:00,47.6,46.8,30.07,NNE,25,1.0,7.0,97,0.27,,---,0.62,VWS V14.01,2013-02-10 23:30:00,
2013-02-10 18:33:00,49.3,47.9,30.08,NNE,13,6.0,11.0,95,0.10,,---,0.72,VWS V14.01,2013-02-10 23:33:00,
2013-02-10 18:35:00,47.8,47.0,30.07,ENE,75,6.0,11.0,97,0.23,,---,0.62,VWS V14.01,2013-02-10 23:35:00,
2013-02-10 18:39:00,49.3,47.9,30.06,WNW,289,2.0,10.0,95,0.11,,---,0.73,VWS V14.01,2013-02-10 23:39:00,
2013-02-10 18:40:00,48.1,47.0,30.08,East,98,3.0,12.0,96,0.21,,---,0.63,VWS V14.01,2013-02-10 23:40:00,
2013-02-10 18:44:00,49.4,48.0,30.04,NE,37,5.0,12.0,95,0.10,,---,0.73,VWS V14.01,2013-02-10 23:44:00,
2013-02-10 18:45:00,48.2,47.1,30.08,East,89,4.0,10.0,96,0.19,,---,0.64,VWS V14.01,2013-02-10 23:45:00,
2013-02-10 18:49:00,49.5,48.1,30.02,NE,37,3.0,11.0,95,0.10,,---,0.74,VWS V14.01,2013-02-10 23:49:00,
2013-02-10 18:50:00,48.3,47.2,30.09,NE,53,3.0,8.0,96,0.20,,---,0.66,VWS V14.01,2013-02-10 23:50:00,
2013-02-10 18:54:00,49.6,48.2,30.02,North,360,4.0,12.0,95,0.08,,---,0.74,VWS V14.01,2013-02-10 23:54:00,
2013-02-10 18:55:00,48.4,47.3,30.05,WNW,288,3.0,11.0,96,0.21,,---,0.68,VWS V14.01,2013-02-10 23:55:00,
2013-02-10 18:59:00,49.6,48.2,30.02,ENE,76,3.0,9.0,95,0.07,,---,0.75,VWS V14.01,2013-02-10 23:59:00,
2013-02-10 19:00:00,48.4,47.3,30.05,NNW,330,6.0,14.0,96,0.20,,---,0.70,VWS V14.01,2013-02-11 00:00:00,
2013-02-10 19:04:00,49.7,48.3,30.03,NW,304,8.0,13.0,95,0.05,,---,0.75,VWS V14.01,2013-02-11 00:04:00,
2013-02-10 19:05:00,48.5,47.4,30.06,East,80,6.0,13.0,96,0.16,,---,0.70,VWS V14.01,2013-02-11 00:05:00,
2013-02-10 19:09:00,49.7,48.3,30.03,ENE,64,7.0,15.0,95,0.05,,---,0.75,VWS V14.01,2013-02-11 00:09:00,
2013-02-10 19:10:00,48.6,47.5,30.06,NNE,30,3.0,12.0,96,0.15,,---,0.71,VWS V14.01,2013-02-11 00:10:00,
2013-02-10 19:14:00,49.9,48.5,30.04,ENE,73,10.0,14.0,95,0.04,,---,0.75,VWS V14.01,2013-02-11 00:14:00,
2013-02-10 19:15:00,48.8,47.7,30.07,ENE,63,6.0,11.0,96,0.12,,---,0.71,VWS V14.01,2013-02-11 00:15:00,
2013-02-10 19:19:00,50.0,48.6,30.04,North,1,5.0,19.0,95,0.04,,---,0.75,VWS V14.01,2013-02-11 00:19:00,
2013-02-10 19:20:00,48.9,47.8,30.07,NE,49,10.0,13.0,96,0.10,,---,0.71,VWS V14.01,2013-02-11 00:20:00,
2013-02-10 19:24:00,50.1,48.7,30.04,NNE,15,4.0,17.0,95,0.05,,---,0.76,VWS V14.01,2013-02-11 00:24:00,
2013-02-10 19:25:00,49.1,48.0,30.07,ENE,57,5.0,12.0,96,0.10,,---,0.72,VWS V14.01,2013-02-11 00:25:00,
2013-02-10 19:29:00,50.1,48.7,30.02,NNW,333,6.0,14.0,95,0.04,,---,0.76,VWS V14.01,2013-02-11 00:29:00,
2013-02-10 19:30:00,49.2,47.8,30.08,ENE,70,3.0,10.0,95,0.10,,---,0.72,VWS V14.01,2013-02-11 00:30:00,
2013-02-10 19:34:00,50.1,48.7,30.03,East,94,10.0,14.0,95,0.04,,---,0.76,VWS V14.01,2013-02-11 00:34:00,
2013-02-10 19:35:00,49.3,47.9,30.08,NE,43,8.0,11.0,95,0.10,,---,0.72,VWS V14.01,2013-02-11 00:35:00,
2013-02-10 19:39:00,50.2,48.8,30.03,NNE,23,8.0,12.0,95,0.04,,---,0.76,VWS V14.01,2013-02-11 00:39:00,
2013-02-10 19:40:00,49.3,47.9,30.06,North,11,8.0,10.0,95,0.11,,---,0.73,VWS V14.01,2013-02-11 00:40:00,
2013-02-10 19:44:00,50.2,48.8,30.01,ENE,75,3.0,13.0,95,0.03,,---,0.76,VWS V14.01,2013-02-11 00:44:00,
2013-02-10 19:45:00,49.4,48.0,30.03,NW,322,2.0,12.0,95,0.10,,---,0.73,VWS V14.01,2013-02-11 00:45:00,
2013-02-10 19:49:00,50.2,48.8,30.01,NE,45,7.0,12.0,95,0.03,,---,0.76,VWS V14.01,2013-02-11 00:49:00,
2013-02-10 19:50:00,49.5,48.1,30.02,NNW,347,3.0,11.0,95,0.10,,---,0.74,VWS V14.01,2013-02-11 00:50:00,
2013-02-10 19:54:00,50.4,49.0,30.02,North,355,6.0,13.0,95,0.02,,---,0.76,VWS V14.01,2013-02-11 00:54:00,
2013-02-10 19:55:00,49.6,48.2,30.02,NNE,19,8.0,12.0,95,0.08,,---,0.74,VWS V14.01,2013-02-11 00:55:00,
2013-02-10 19:59:00,50.4,49.0,30.02,NNE,19,4.0,11.0,95,0.02,,---,0.76,VWS V14.01,2013-02-11 00:59:00,
2013-02-10 20:00:00,49.6,48.2,30.02,North,358,5.0,13.0,95,0.07,,---,0.75,VWS V14.01,2013-02-11 01:00:00,
2013-02-10 20:04:00,50.5,49.1,30.03,ENE,75,5.0,12.0,95,0.01,,---,0.76,VWS V14.01,2013-02-11 01:04:00,
2013-02-10 20:05:00,49.7,48.3,30.03,NNE,23,8.0,13.0,95,0.05,,---,0.75,VWS V14.01,2013-02-11 01:05:00,
2013-02-10 20:09:00,50.6,49.2,30.03,NNE,18,2.0,12.0,95,0.01,,---,0.76,VWS V14.01,2013-02-11 01:09:00,
2013-02-10 20:10:00,49.8,48.4,30.03,NNE,22,12.0,15.0,95,0.05,,---,0.75,VWS V14.01,2013-02-11 01:10:00,
2013-02-10 20:14:00,50.6,49.2,30.04,NE,43,7.0,9.0,95,0.01,,---,0.76,VWS V14.01,2013-02-11 01:14:00,
2013-02-10 20:15:00,49.9,48.5,30.04,NNE,22,8.0,18.0,95,0.04,,---,0.75,VWS V14.01,2013-02-11 01:15:00,
2013-02-10 20:19:00,50.7,49.3,30.03,NE,37,5.0,7.0,95,0.01,,---,0.76,VWS V14.01,2013-02-11 01:19:00,
2013-02-10 20:20:00,50.0,48.6,30.04,NW,319,4.0,19.0,95,0.05,,---,0.76,VWS V14.01,2013-02-11 01:20:00,
2013-02-10 20:24:00,50.7,49.3,30.01,North,1,4.0,7.0,95,0.00,,---,0.76,VWS V14.01,2013-02-11 01:24:00,
2013-02-10 20:25:00,50.1,48.7,30.03,NE,42,10.0,17.0,95,0.05,,---,0.76,VWS V14.01,2013-02-11 01:25:00,
2013-02-10 20:29:00,50.7,49.3,30.02,NE,41,4.0,7.0,95,0.00,,---,0.76,VWS V14.01,2013-02-11 01:29:00,
2013-02-10 20:30:00,50.1,48.7,30.02,ENE,63,5.0,14.0,95,0.04,,---,0.76,VWS V14.01,2013-02-11 01:30:00,
2013-02-10 20:34:00,50.8,49.4,30.03,NNE,33,4.0,9.0,95,0.00,,---,0.76,VWS V14.01,2013-02-11 01:34:00,
2013-02-10 20:35:00,50.1,48.7,30.02,NE,34,9.0,16.0,95,0.04,,---,0.76,VWS V14.01,2013-02-11 01:35:00,
2013-02-10 20:39:00,50.9,49.5,30.03,ENE,64,9.0,9.0,95,0.00,,---,0.76,VWS V14.01,2013-02-11 01:39:00,
2013-02-10 20:40:00,50.2,48.8,30.03,East,82,7.0,12.0,95,0.04,,---,0.76,VWS V14.01,2013-02-11 01:40:00,
2013-02-10 20:44:00,51.0,49.6,30.03,NE,51,3.0,10.0,95,0.00,,---,0.76,VWS V14.01,2013-02-11 01:44:00,
2013-02-10 20:45:00,50.2,48.8,30.01,NNE,23,9.0,13.0,95,0.03,,---,0.76,VWS V14.01,2013-02-11 01:45:00,
2013-02-10 20:49:00,51.0,49.6,30.03,North,354,4.0,11.0,95,0.00,,---,0.76,VWS V14.01,2013-02-11 01:49:00,
2013-02-10 20:50:00,50.3,48.9,30.02,North,10,6.0,15.0,95,0.03,,---,0.76,VWS V14.01,2013-02-11 01:50:00,
2013-02-10 20:54:00,51.1,49.7,30.03,NE,41,8.0,13.0,95,0.00,,---,0.76,VWS V14.01,2013-02-11 01:54:00,
2013-02-10 20:55:00,50.4,49.0,30.02,NE,50,7.0,13.0,95,0.02,,---,0.76,VWS V14.01,2013-02-11 01:55:00,
2013-02-10 20:59:00,51.2,49.5,30.03,NE,52,5.0,10.0,94,0.00,,---,0.76,VWS V14.01,2013-02-11 01:59:00,
2013-02-10 21:00:00,50.4,49.0,30.02,NNW,337,5.0,11.0,95,0.02,,---,0.76,VWS V14.01,2013-02-11 02:00:00,
2013-02-10 21:04:00,51.1,49.4,30.02,North,9,3.0,11.0,94,0.00,,---,0.76,VWS V14.01,2013-02-11 02:04:00,
2013-02-10 21:05:00,50.5,49.1,30.03,NE,43,2.0,12.0,95,0.01,,---,0.76,VWS V14.01,2013-02-11 02:05:00,
2013-02-10 21:09:00,51.2,49.5,30.02,North,6,1.0,9.0,94,0.00,,---,0.76,VWS V14.01,2013-02-11 02:09:00,
2013-02-10 21:10:00,50.6,49.2,30.03,ENE,57,8.0,12.0,95,0.01,,---,0.76,VWS V14.01,2013-02-11 02:10:00,
2013-02-10 21:14:00,51.2,49.5,30.01,ENE,75,6.0,8.0,94,0.00,,---,0.76,VWS V14.01,2013-02-11 02:14:00,
2013-02-10 21:15:00,50.7,49.3,30.03,NE,45,6.0,9.0,95,0.01,,---,0.76,VWS V14.01,2013-02-11 02:15:00,
2013-02-10 21:19:00,51.3,49.6,30.02,NE,45,6.0,14.0,94,0.00,,---,0.76,VWS V14.01,2013-02-11 02:19:00,
2013-02-10 21:20:00,50.7,49.3,30.02,NNW,339,2.0,8.0,95,0.01,,---,0.76,VWS V14.01,2013-02-11 02:20:00,
2013-02-10 21:24:00,51.2,49.5,30.02,ENE,59,2.0,8.0,94,0.00,,---,0.76,VWS V14.01,2013-02-11 02:24:00,
2013-02-10 21:25:00,50.7,49.3,30.01,NNW,330,4.0,8.0,95,0.00,,---,0.76,VWS V14.01,2013-02-11 02:25:00,
2013-02-10 21:29:00,51.2,49.5,30.01,NNE,26,8.0,8.0,94,0.00,,---,0.76,VWS V14.01,2013-02-11 02:29:00,
2013-02-10 21:30:00,50.7,49.3,30.02,ENE,61,6.0,7.0,95,0.00,,---,0.76,VWS V14.01,2013-02-11 02:30:00,
2013-02-10 21:34:00,51.2,49.8,30.01,East,86,2.0,9.0,95,0.00,,---,0.76,VWS V14.01,2013-02-11 02:34:00,
2013-02-10 21:35:00,50.9,49.5,30.03,ENE,66,8.0,12.0,95,0.00,,---,0.76,VWS V14.01,2013-02-11 02:35:00,
2013-02-10 21:39:00,51.1,49.7,30.00,ENE,57,5.0,5.0,95,0.00,,---,0.76,VWS V14.01,2013-02-11 02:39:00,
2013-02-10 21:40:00,50.9,49.5,30.03,NNE,29,3.0,9.0,95,0.00,,---,0.76,VWS V14.01,2013-02-11 02:40:00,
2013-02-10 21:44:00,51.1,49.7,30.00,ENE,70,2.0,7.0,95,0.00,,---,0.76,VWS V14.01,2013-02-11 02:44:00,
2013-02-10 21:45:00,51.0,49.6,30.03,ENE,65,7.0,10.0,95,0.00,,---,0.76,VWS V14.01,2013-02-11 02:45:00,
2013-02-10 21:49:00,51.1,49.7,30.00,NE,34,4.0,8.0,95,0.00,,---,0.76,VWS V14.01,2013-02-11 02:49:00,
2013-02-10 21:50:00,51.0,49.6,30.03,NE,38,5.0,12.0,95,0.00,,---,0.76,VWS V14.01,2013-02-11 02:50:00,
2013-02-10 21:54:00,51.1,49.7,30.00,NE,43,3.0,9.0,95,0.00,,---,0.76,VWS V14.01,2013-02-11 02:54:00,
2013-02-10 21:55:00,51.1,49.4,30.03,NE,37,5.0,14.0,94,0.00,,---,0.76,VWS V14.01,2013-02-11 02:55:00,
2013-02-10 21:59:00,51.2,49.8,30.00,NE,52,7.0,7.0,95,0.00,,---,0.76,VWS V14.01,2013-02-11 02:59:00,
2013-02-10 22:00:00,51.2,49.5,30.03,North,349,5.0,10.0,94,0.00,,---,0.76,VWS V14.01,2013-02-11 03:00:00,
2013-02-10 22:04:00,51.2,49.8,30.00,NE,45,4.0,7.0,95,0.00,,---,0.76,VWS V14.01,2013-02-11 03:04:00,
2013-02-10 22:05:00,51.2,49.5,30.03,East,79,2.0,11.0,94,0.00,,---,0.76,VWS V14.01,2013-02-11 03:05:00,
2013-02-10 22:09:00,51.3,49.9,30.00,ENE,68,3.0,6.0,95,0.00,,---,0.76,VWS V14.01,2013-02-11 03:09:00,
2013-02-10 22:10:00,51.2,49.5,30.02,ESE,115,3.0,9.0,94,0.00,,---,0.76,VWS V14.01,2013-02-11 03:10:00,
2013-02-10 22:14:00,51.3,49.9,30.00,NE,56,3.0,8.0,95,0.00,,---,0.76,VWS V14.01,2013-02-11 03:14:00,
2013-02-10 22:15:00,51.2,49.5,30.02,ENE,58,4.0,15.0,94,0.00,,---,0.76,VWS V14.01,2013-02-11 03:15:00,
2013-02-10 22:19:00,51.2,49.8,30.00,NE,50,6.0,8.0,95,0.00,,---,0.76,VWS V14.01,2013-02-11 03:19:00,
2013-02-10 22:20:00,51.3,49.6,30.02,ENE,71,5.0,14.0,94,0.00,,---,0.76,VWS V14.01,2013-02-11 03:20:00,
2013-02-10 22:24:00,51.2,49.8,30.00,NE,53,2.0,10.0,95,0.00,,---,0.76,VWS V14.01,2013-02-11 03:24:00,
2013-02-10 22:25:00,51.2,49.5,30.02,ENE,63,3.0,8.0,94,0.00,,---,0.76,VWS V14.01,2013-02-11 03:25:00,
2013-02-10 22:29:00,51.3,49.9,30.00,ENE,62,6.0,9.0,95,0.00,,---,0.76,VWS V14.01,2013-02-11 03:29:00,
2013-02-10 22:30:00,51.2,49.8,30.01,NE,37,5.0,8.0,95,0.00,,---,0.76,VWS V14.01,2013-02-11 03:30:00,
2013-02-10 22:34:00,51.3,49.9,30.00,NE,39,8.0,12.0,95,0.00,,---,0.76,VWS V14.01,2013-02-11 03:34:00,
2013-02-10 22:35:00,51.2,49.8,30.01,NNW,340,4.0,9.0,95,0.00,,---,0.76,VWS V14.01,2013-02-11 03:35:00,
2013-02-10 22:39:00,51.4,50.0,29.99,ENE,78,2.0,11.0,95,0.00,,---,0.76,VWS V14.01,2013-02-11 03:39:00,
2013-02-10 22:40:00,51.1,49.7,30.00,ENE,65,4.0,5.0,95,0.00,,---,0.76,VWS V14.01,2013-02-11 03:40:00,
2013-02-10 22:44:00,51.4,50.0,30.00,ENE,77,2.0,12.0,95,0.00,,---,0.76,VWS V14.01,2013-02-11 03:44:00,
2013-02-10 22:45:00,51.1,49.7,30.00,NNE,26,3.0,7.0,95,0.00,,---,0.76,VWS V14.01,2013-02-11 03:45:00,
2013-02-10 22:49:00,51.5,50.1,29.99,ENE,60,5.0,11.0,95,0.00,,---,0.76,VWS V14.01,2013-02-11 03:49:00,
2013-02-10 22:50:00,51.1,49.7,30.00,ENE,57,6.0,8.0,95,0.00,,---,0.76,VWS V14.01,2013-02-11 03:50:00,
2013-02-10 22:54:00,51.6,50.2,30.00,NNE,27,3.0,10.0,95,0.00,,---,0.76,VWS V14.01,2013-02-11 03:54:00,
2013-02-10 22:55:00,51.2,49.8,30.00,NE,50,6.0,9.0,95,0.00,,---,0.76,VWS V14.01,2013-02-11 03:55:00,
2013-02-10 22:59:00,51.7,50.3,30.00,ENE,71,1.0,11.0,95,0.00,,---,0.76,VWS V14.01,2013-02-11 03:59:00,
2013-02-10 23:00:00,51.2,49.8,30.00,ENE,66,6.0,8.0,95,0.00,,---,0.76,VWS V14.01,2013-02-11 04:00:00,
2013-02-10 23:04:00,51.8,50.4,29.99,NE,37,4.0,13.0,95,0.00,,---,0.76,VWS V14.01,2013-02-11 04:04:00,
2013-02-10 23:05:00,51.2,49.8,30.00,ENE,68,5.0,7.0,95,0.00,,---,0.76,VWS V14.01,2013-02-11 04:05:00,
2013-02-10 23:09:00,51.8,50.4,29.99,NE,43,9.0,11.0,95,0.00,,---,0.76,VWS V14.01,2013-02-11 04:09:00,
2013-02-10 23:10:00,51.3,49.9,30.00,NNW,346,1.0,6.0,95,0.00,,---,0.76,VWS V14.01,2013-02-11 04:10:00,
2013-02-10 23:14:00,51.9,50.5,30.00,ENE,59,5.0,11.0,95,0.00,,---,0.76,VWS V14.01,2013-02-11 04:14:00,
2013-02-10 23:15:00,51.3,49.9,30.00,ENE,60,4.0,8.0,95,0.00,,---,0.76,VWS V14.01,2013-02-11 04:15:00,
2013-02-10 23:19:00,52.0,50.6,30.00,NE,36,4.0,9.0,95,0.00,,---,0.76,VWS V14.01,2013-02-11 04:19:00,
2013-02-10 23:20:00,51.2,49.8,30.00,ENE,58,3.0,10.0,95,0.00,,---,0.76,VWS V14.01,2013-02-11 04:20:00,
2013-02-10 23:24:00,52.0,50.3,30.00,NE,34,5.0,10.0,94,0.00,,---,0.76,VWS V14.01,2013-02-11 04:24:00,
2013-02-10 23:25:00,51.3,49.9,30.00,NE,50,3.0,10.0,95,0.00,,---,0.76,VWS V14.01,2013-02-11 04:25:00,
2013-02-10 23:29:00,52.0,50.3,30.00,ENE,75,7.0,11.0,94,0.00,,---,0.76,VWS V14.01,2013-02-11 04:29:00,
2013-02-10 23:30:00,51.3,49.9,29.99,ENE,62,3.0,9.0,95,0.00,,---,0.76,VWS V14.01,2013-02-11 04:30:00,
2013-02-10 23:34:00,52.0,50.3,30.00,East,82,6.0,9.0,94,0.00,,---,0.76,VWS V14.01,2013-02-11 04:34:00,
2013-02-10 23:35:00,51.3,49.9,30.00,NE,51,5.0,12.0,95,0.00,,---,0.76,VWS V14.01,2013-02-11 04:35:00,
2013-02-10 23:40:00,52.1,50.7,30.00,NE,52,4.0,8.0,95,0.00,,---,0.76,VWS V14.01,2013-02-11 04:40:00,
2013-02-10 23:45:00,52.1,50.7,30.00,ENE,70,4.0,9.0,95,0.00,,---,0.76,VWS V14.01,2013-02-11 04:45:00,
2013-02-10 23:50:00,52.2,50.8,30.00,WNW,298,5.0,10.0,95,0.00,,---,0.76,VWS V14.01,2013-02-11 04:50:00,
2013-02-10 23:55:00,52.2,50.8,30.01,ENE,68,5.0,8.0,95,0.00,,---,0.76,VWS V14.01,2013-02-11 04:55:00,